CZ-6A DEB, 54444

Orbit data source: Space-Track

CZ-6A DEB, 54444 is space debris in SSO originally from a launch on Fri, 11 Nov 2022 UTC launched from the Taiyaun Space Center, China (TSC). Debris objects in space refer to the collection of defunct objects orbiting the Earth. Examples of debris include non-operational satellites, rocket bodies, and fragments generated from explosions, collisions, or faulty payload assembly.

Loading next visibility...
Identifier
54444, 2022-151FU
Orbit
SSO
Country
Flag of CNCN / PRC
Related business
Manufacturer
SAST
Mission
Spacecraft
Bus & Motor
Unknown
Mass
Unknown
Launch date (UTC)
2022-11-11 (4 years ago)
Launch vehicle
Unknown
Launch site
Taiyaun Space Center, China (TSC)
Object type
Payload
Rocket body
Debris
Shape & HBR
Unknown shape, 0.3 m
Radar Cross Section
Medium (>0.1 m² and <1 m²)

Expand to show TLE details & history
Last TLE update: 8 hours ago

TLE from 8 hours ago
0 CZ-6A DEB
1 54444U 22151FU  26236.60797260  .00001863  00000-0  44396-3 0  9995
2 54444  98.7204 303.7318 0111778  33.1424 327.6708 14.51307002198914
Epoch: 2026-08-24T14:35Z
TLE epoch observation values (Epoch: 2026-08-24T14:35:28.832Z)
Latitude
-0.00004°
Longitude
111.97444°
Altitude
657.528 km
Speed
7.564 km/s
True Right ascension
20h 14m 55s
True Declination
0° 00' 00"
Sunlit
Object was in full shadow at epoch
Visualization orbit readout
Latitude
Unknown
Longitude
Unknown
Altitude
Unknown
Speed
Unknown
Apparent Right ascension
Unknown
Apparent Declination
Unknown
Sunlit
N/A
Visualization observer readout
Local Sidereal Time
13:31:17
Azimuth
Unknown
Elevation
Unknown
Doppler factor
Unknown
Orbital elements
Apogee altitude
797.825 km
Perigee altitude
639.175 km
Semi-major axis
7,096.637 km
Eccentricity
0.01118
Inclination
98.7204°
RAAN
303.7318°
Arg. of periapsis
33.1424°
True anomaly
326.97764°
Mean anomaly
327.6708°
Eccentric anomaly
327.32504°
Mean motion
3.63048 °/min
Orbital period
99.16 mins
BSTAR
0.00044396
Loading maneuver chart data...
Computing Atmospheric mass density...
Loading historical data...
Loading historical data...
Loading historical data...
Loading historical data...
Loading historical data...
Loading historical data...
Loading historical data...

Documentation

Showing up to 5 results
|